Location: ?
(35.3436°N, 139.3168°E)
Time: 21:16:23
(UTC+00:00)

Cosmos 1833 Rocket - Pass Details

Date: 29 October 2020
Orbit: 832 x 840 km, 71.0° (Epoch: 24 November)

Event Time Altitude Azimuth Distance (km) Brightness Sun altitude
Exits shadow 18:34:24 30° 9° (N) 1,453 4.0 -30.7°
Drops below altitude 10° 18:37:14 10° 17° (NNE) 2,461 5.3 -30.1°
Sets 18:39:42 0° 19° (NNE) 3,399 6.1 -29.6°
